GSAT0207 (GALILEO 15)

Last updated on Sun Jun 21 2026 00:02:55 GMT+0000 (Coordinated Universal Time)

1 41859U 16069A 26170.67835764 -.00000013 00000+0 00000+0 0 9994 2 41859 55.5002 101.0173 0005217 330.9828 28.9678 1.70473648 59449
UTC large
Height (km)
Speed (km/s)
/
Latitude / Longitude
Inclination (degrees)
Orbital Period (minutes)
Azimuth
Elevation
Range (km)
Doppler Factor

Next 0 passes for location: London (51.5072 / 0.1276)

No passes found over London.
GSAT0207 (GALILEO 15)